"2010-08-24 00:00:00",98221,2.314,164.6,6.096,0.418,19.28,108.0754,19.95,20.83,39.59,0,110.9,13.23,20.77,126.6
"2010-08-24 00:00:30",98222,2.624,176.7,3.797,0.121,19.22,108.067,19.93,20.82,38.9,0,110.9,13.23,20.75,138.7
"2010-08-24 00:01:00",98223,2.562,177.9,3.991,0.177,19.24,108.067,19.93,20.81,39.37,0,110.9,13.23,20.75,139.9
"2010-08-24 00:01:30",98224,2.937,173.6,6.51,0.289,19.26,108.0655,19.93,20.81,39.93,0,110.9,13.23,20.75,135.6
"2010-08-24 00:02:00",98225,3.489,186.8,4.016,0.224,19.21,108.0419,19.87,20.77,40.95,0,110.9,13.23,20.69,148.8
"2010-08-24 00:02:30",98226,3.35,188.1,4.217,0.24,19.25,108.033,19.84,20.76,40.07,0,110.9,13.23,20.67,150.1
"2010-08-24 00:03:00",98227,2.571,179.5,4.258,0.351,19.27,108.0339,19.85,20.74,41.04,0,110.9,13.23,20.67,141.5
"2010-08-24 00:03:30",98228,2.18,196.7,17.02,0.4,19.08,108.0057,19.77,20.71,44.55,0,110.9,13.23,20.60,158.7
"2010-08-24 00:04:00",98229,2.346,208.8,9.2,0.442,19.09,107.9813,19.71,20.67,44.2,0,110.9,13.23,20.53,170.8
"2010-08-24 00:04:30",98230,2.059,181.3,9.04,0.277,19.19,107.9664,19.67,20.64,42.85,0,110.9,13.23,20.49,143.3
"2010-08-24 00:05:00",98231,1.51,154.6,16.16,0.4,19.24,107.9658,19.67,20.6,41.08,0,110.9,13.23,20.49,116.6
"2010-08-24 00:05:30",98232,0.864,194.8,39.26,0.33,19.22,107.9676,19.68,20.6,42.96,0,110.9,13.24,20.50,156.8
"2010-08-24 00:06:00",98233,0.969,155.4,28.52,0.453,19.2,107.9616,19.66,20.57,43.39,0,110.9,13.23,20.48,117.4
"2010-08-24 00:06:30",98234,1.357,183.9,17.87,0.152,19.12,107.9439,19.62,20.55,44.08,0,110.9,13.24,20.44,145.9
"2010-08-24 00:07:00",98235,1.026,197.2,11.28,0.227,19.14,107.9338,19.59,20.53,44.54,0,110.9,13.24,20.41,159.2
"2010-08-24 00:07:30",98236,1.143,165.3,9.02,0.417,19.13,107.9332,19.59,20.51,44.95,0,110.9,13.24,20.41,127.3
"2010-08-24 00:08:00",98237,2.06,176.9,7.914,0.313,19.33,107.9338,19.59,20.49,40.99,0,110.9,13.24,20.41,138.9
"2010-08-24 00:08:30",98238,1.803,179.6,5.455,0.212,19.18,107.9347,19.59,20.5,40.74,0,110.9,13.24,20.41,141.6
"2010-08-24 00:09:00",98239,1.791,179.1,3.202,0.087,19.36,107.9563,19.65,20.5,39.62,0,110.9,13.24,20.47,141.1
"2010-08-24 00:09:30",98240,1.893,171.2,4.615,0.164,19.15,107.9676,19.68,20.53,39.58,0,110.9,13.23,20.50,133.2
"2010-08-24 00:10:00",98241,1.823,160.6,4.065,0.074,19.21,107.9811,19.71,20.54,37.73,0,110.9,13.24,20.53,122.6
"2010-08-24 00:10:30",98242,1.785,153.2,3.061,0.053,19.38,108.0011,19.76,20.57,36.44,0,110.9,13.24,20.58,115.2
"2010-08-24 00:11:00",98243,1.964,156.4,6.143,0.161,19.31,108.0137,19.79,20.59,36.87,0,110.9,13.24,20.62,118.4
"2010-08-24 00:11:30",98244,2.076,155.4,4.567,0.078,19.18,108.0343,19.85,20.63,37.02,0,110.9,13.23,20.67,117.4
"2010-08-24 00:12:00",98245,2.155,148.5,3.994,0.097,19.17,108.0351,19.85,20.65,36.83,0,110.9,13.23,20.67,110.5
"2010-08-24 00:12:30",98246,2.318,153.9,3.475,0.14,19.34,108.0351,19.85,20.67,36.19,0,110.9,13.23,20.67,115.9
"2010-08-24 00:13:00",98247,2.402,157.4,2.887,0.19,19.22,108.0351,19.85,20.68,37.47,0,110.9,13.23,20.67,119.4
"2010-08-24 00:13:30",98248,2.706,156.9,2.175,0.064,19.21,108.0351,19.85,20.72,38.1,0,110.9,13.23,20.67,118.9
"2010-08-24 00:14:00",98249,2.997,164.1,4.221,0.083,19.28,108.0351,19.85,20.7,38.28,0,110.9,13.23,20.67,126.1
"2010-08-24 00:14:30",98250,2.737,163.1,3.062,0.293,19.2,108.0351,19.85,20.7,38.11,0,110.9,13.23,20.67,125.1
"2010-08-24 00:15:00",98251,2.253,159.9,3.254,0.083,19.36,108.0351,19.85,20.7,37.77,0,110.9,13.23,20.67,121.9
"2010-08-24 00:15:30",98252,2.358,158.1,3.329,0.146,19.25,108.0351,19.85,20.69,37.97,0,110.9,13.23,20.67,120.1
"2010-08-24 00:16:00",98253,3.123,145.7,4.419,0.268,19.21,108.0351,19.85,20.69,38.25,0,110.9,13.23,20.67,107.7
"2010-08-24 00:16:30",98254,3.231,142.7,3.452,0.179,19.25,108.0337,19.85,20.69,38.02,0,110.9,13.23,20.67,104.7
"2010-08-24 00:17:00",98255,3.174,151.3,4.006,0.169,19.25,108.0286,19.83,20.68,38.22,0,110.9,13.24,20.65,113.3
"2010-08-24 00:17:30",98256,2.894,160.8,4.865,0.074,19.37,108.0267,19.83,20.69,38.61,0,110.9,13.24,20.65,122.8
"2010-08-24 00:18:00",98257,2.616,165.2,3.554,0.092,19.15,108.0205,19.81,20.69,38.96,0,110.9,13.24,20.63,127.2
"2010-08-24 00:18:30",98258,2.669,162.1,7.131,0.191,19.19,108.0028,19.77,20.67,38.76,0,110.9,13.24,20.59,124.1
"2010-08-24 00:19:00",98259,2.736,178.5,3.029,0.195,19.28,108.0013,19.76,20.67,38.61,0,110.9,13.24,20.58,140.5
"2010-08-24 00:19:30",98260,2.424,186.4,4.771,0.255,19.3,108.0013,19.76,20.67,39.24,0,110.9,13.24,20.58,148.4
"2010-08-24 00:20:00",98261,2.045,184.3,4.128,0.188,19.29,108.0013,19.76,20.68,39.3,0,110.9,13.24,20.58,146.3
"2010-08-24 00:20:30",98262,2.081,181.2,4.049,0.366,19.29,108.0013,19.76,20.67,39.28,0,110.9,13.24,20.58,143.2
"2010-08-24 00:21:00",98263,2.883,176.3,1.513,0.225,19.26,108.0013,19.76,20.66,38.94,0,110.9,13.24,20.58,138.3
"2010-08-24 00:21:30",98264,2.707,176.1,1.558,0.207,19.25,108.0013,19.76,20.65,39.36,0,110.9,13.24,20.58,138.1
"2010-08-24 00:22:00",98265,2.702,171.2,4.018,0.245,19.27,108.0013,19.76,20.65,39.26,0,110.9,13.24,20.58,133.2
"2010-08-24 00:22:30",98266,2.328,165.3,3.533,0.168,19.29,108.0013,19.76,20.65,39.56,0,110.9,13.24,20.58,127.3
"2010-08-24 00:23:00",98267,2.643,162.1,3.096,0.168,19.19,108.0011,19.76,20.65,40.61,0,110.8,13.24,20.58,124.1
"2010-08-24 00:23:30",98268,2.787,167.9,2.508,0.123,19.31,107.9968,19.75,20.64,40.62,0,110.8,13.24,20.57,129.9
"2010-08-24 00:24:00",98269,2.894,167.7,3.522,0.149,19.3,107.9923,19.74,20.63,40.56,0,110.8,13.24,20.56,129.7
"2010-08-24 00:24:30",98270,3.042,168.3,5.177,0.092,19.26,107.9791,19.71,20.6,41.01,0,110.8,13.24,20.53,130.3
"2010-08-24 00:25:00",98271,2.91,164.5,4.364,0.1,19.24,107.9681,19.68,20.6,41.52,0,110.8,13.24,20.50,126.5
"2010-08-24 00:25:30",98272,2.896,154.8,1.891,0.133,19.23,107.9676,19.68,20.59,41.44,0,110.8,13.24,20.50,116.8
"2010-08-24 00:26:00",98273,2.771,156.1,5.336,0.177,19.22,107.9676,19.68,20.57,41.44,0,110.8,13.24,20.50,118.1
"2010-08-24 00:26:30",98274,2.643,163.6,2.954,0.205,19.25,107.9673,19.68,20.58,41.66,0,110.8,13.24,20.50,125.6
"2010-08-24 00:27:00",98275,2.688,166,1.979,0.116,19.23,107.9614,19.66,20.56,42.06,0,110.8,13.24,20.48,128.0
"2010-08-24 00:27:30",98276,2.462,158.8,3.033,0.095,19.15,107.9487,19.63,20.57,42.19,0,110.8,13.24,20.45,120.8
"2010-08-24 00:28:00",98277,2.495,158.8,2.541,0.085,19.15,107.94,19.61,20.55,42.06,0,110.8,13.24,20.43,120.8
"2010-08-24 00:28:30",98278,2.342,157.2,3.826,0.159,19.17,107.9341,19.59,20.54,42.56,0,110.8,13.24,20.41,119.2
"2010-08-24 00:29:00",98279,2.371,157.7,2.531,0.123,19.17,107.9338,19.59,20.53,42.84,0,110.8,13.24,20.41,119.7
"2010-08-24 00:29:30",98280,2.048,157,2.165,0.112,19.19,107.9338,19.59,20.52,42.98,0,110.8,13.23,20.41,119.0
"2010-08-24 00:30:00",98281,1.968,156.8,6.09,0.138,19.22,107.9338,19.59,20.51,42.74,0,110.8,13.23,20.41,118.8
"2010-08-24 00:30:30",98282,1.878,147.6,5.953,0.187,19.22,107.9338,19.59,20.5,43.21,0,110.8,13.23,20.41,109.6
"2010-08-24 00:31:00",98283,1.728,145.6,5.896,0.154,19.16,107.9257,19.57,20.49,43.46,0,110.8,13.23,20.39,107.6
"2010-08-24 00:31:30",98284,1.952,147.7,3.953,0.204,19.2,107.9133,19.54,20.47,43.33,0,110.8,13.23,20.36,109.7
"2010-08-24 00:32:00",98285,1.712,142.5,3.846,0.106,19.28,107.9046,19.51,20.47,42.32,0,110.8,13.23,20.34,104.5
"2010-08-24 00:32:30",98286,1.593,152.4,2.882,0.066,19.27,107.9108,19.53,20.47,42.29,0,110.8,13.23,20.35,114.4
"2010-08-24 00:33:00",98287,1.75,151.9,3.319,0.124,19.16,107.9079,19.52,20.46,43.24,0,110.8,13.24,20.34,113.9
"2010-08-24 00:33:30",98288,1.638,155.9,1.658,0.068,19.27,107.902,19.51,20.45,41.97,0,110.8,13.24,20.33,117.9
"2010-08-24 00:34:00",98289,1.772,154.5,1.857,0.036,19.24,107.9147,19.54,20.46,39.98,0,110.8,13.24,20.36,116.5
"2010-08-24 00:34:30",98290,1.919,153.6,0.848,0.039,19.08,107.9342,19.59,20.47,37.93,0,110.8,13.24,20.41,115.6
"2010-08-24 00:35:00",98291,1.998,152.1,1.278,0.054,19.08,107.9466,19.62,20.48,37.52,0,110.8,13.25,20.44,114.1
"2010-08-24 00:35:30",98292,2.01,152.9,1.876,0.049,19.1,107.9685,19.68,20.53,36.61,0,110.8,13.25,20.50,114.9
"2010-08-24 00:36:00",98293,1.974,151.2,1.267,0.045,19.1,107.9936,19.74,20.57,36.29,0,110.8,13.25,20.56,113.2
"2010-08-24 00:36:30",98294,1.926,149,1.724,0.057,19.32,108.0023,19.77,20.6,36.09,0,110.8,13.25,20.59,111.0
"2010-08-24 00:37:00",98295,2.105,155.4,2.498,0.147,19.38,108.0136,19.79,20.64,36.31,0,110.8,13.25,20.62,117.4
"2010-08-24 00:37:30",98296,2.098,155.4,0.734,0.043,19.29,108.0337,19.85,20.65,35.92,0,110.8,13.25,20.67,117.4
"2010-08-24 00:38:00",98297,2.098,157.8,0.8,0.066,19.38,108.0424,19.87,20.66,35.74,0,110.8,13.25,20.69,119.8
"2010-08-24 00:38:30",98298,1.995,152.7,2.009,0.074,19.13,108.0418,19.87,20.7,35.59,0,110.8,13.25,20.69,114.7
"2010-08-24 00:39:00",98299,2.239,151.8,0.847,0.092,19.44,108.0409,19.86,20.7,35.87,0,110.8,13.25,20.69,113.8
"2010-08-24 00:39:30",98300,2.32,150.9,1.608,0.122,19.41,108.0415,19.87,20.72,36.17,0,110.8,13.25,20.69,112.9
"2010-08-24 00:40:00",98301,2.409,154.5,2.731,0.16,19.12,108.0412,19.87,20.73,39.49,0,110.8,13.25,20.69,116.5
"2010-08-24 00:40:30",98302,2.396,156.7,2.135,0.067,19.21,108.0312,19.84,20.72,39.58,0,110.8,13.25,20.66,118.7
"2010-08-24 00:41:00",98303,2.337,159.6,2.742,0.164,19.16,108.0077,19.78,20.71,39.1,0,110.8,13.25,20.60,121.6
"2010-08-24 00:41:30",98304,2.074,152,4.126,0.059,19.12,108.0068,19.78,20.7,41.39,0,110.8,13.25,20.60,114.0
"2010-08-24 00:42:00",98305,2.231,157.7,1.357,0.091,19.21,107.9852,19.72,20.69,41.05,0,110.8,13.25,20.54,119.7
"2010-08-24 00:42:30",98306,2.156,157.3,1.965,0.051,19.22,107.9721,19.69,20.66,40.9,0,110.8,13.25,20.51,119.3
"2010-08-24 00:43:00",98307,2.03,160.9,3.636,0.121,19.19,107.9752,19.7,20.62,41.41,0,110.8,13.25,20.52,122.9
"2010-08-24 00:43:30",98308,1.869,158.6,2.467,0.132,19.16,107.9755,19.7,20.62,40.23,0,110.8,13.25,20.52,120.6
"2010-08-24 00:44:00",98309,1.861,157.8,3.139,0.065,19.15,107.9746,19.69,20.62,38.58,0,110.8,13.25,20.52,119.8
"2010-08-24 00:44:30",98310,1.866,157.1,2.738,0.104,19.18,107.9752,19.7,20.61,39.08,0,110.8,13.25,20.52,119.1
"2010-08-24 00:45:00",98311,1.638,155.6,2.389,0.06,19.48,107.9746,19.69,20.61,38.21,0,110.8,13.25,20.52,117.6
"2010-08-24 00:45:30",98312,1.507,152,1.347,0.036,19.49,107.9994,19.76,20.63,35.76,0,110.8,13.24,20.58,114.0
"2010-08-24 00:46:00",98313,1.421,152.7,1.221,0.057,19.33,108.0173,19.8,20.65,35.54,0,110.8,13.24,20.63,114.7
"2010-08-24 00:46:30",98314,1.32,155,0.653,0.027,19.23,108.0409,19.86,20.69,35.35,0,110.8,13.24,20.69,117.0
"2010-08-24 00:47:00",98315,1.374,162.3,3.936,0.161,19.28,108.0467,19.88,20.71,37.9,0,110.8,13.24,20.70,124.3
"2010-08-24 00:47:30",98316,1.318,160.4,0.758,0.033,19.09,108.0434,19.87,20.71,36.98,0,110.8,13.24,20.69,122.4
"2010-08-24 00:48:00",98317,1.212,161.4,1.145,0.027,19.14,108.0476,19.88,20.73,36.58,0,110.8,13.24,20.70,123.4
"2010-08-24 00:48:30",98318,1.149,164.8,1.051,0.042,19.2,108.0416,19.87,20.72,38.62,0,110.8,13.24,20.69,126.8
"2010-08-24 00:49:00",98319,1.162,160.9,2.574,0.055,19.21,108.0158,19.8,20.72,38.61,0,110.8,13.24,20.62,122.9
"2010-08-24 00:49:30",98320,1.26,159.6,3.571,0.048,19.09,108.0132,19.79,20.72,39.78,0,110.8,13.24,20.61,121.6
"2010-08-24 00:50:00",98321,1.221,160.1,2.527,0.07,19.18,108.0156,19.8,20.69,37.61,0,110.8,13.24,20.62,122.1
"2010-08-24 00:50:30",98322,1.326,156.8,2.311,0.04,19.11,108.0181,19.81,20.71,38.29,0,110.8,13.25,20.63,118.8
"2010-08-24 00:51:00",98323,1.401,161.2,2.283,0.044,19.29,108.0168,19.8,20.7,38.64,0,110.8,13.25,20.62,123.2
"2010-08-24 00:51:30",98324,1.329,162,2.11,0.041,19.15,108.0149,19.8,20.68,40.35,0,110.8,13.25,20.62,124.0
"2010-08-24 00:52:00",98325,1.244,168.6,2.515,0.063,19.11,107.9872,19.73,20.66,42.92,0,110.8,13.25,20.55,130.6
"2010-08-24 00:52:30",98326,1.315,161.6,4.743,0.138,19.18,107.9773,19.7,20.66,42.36,0,110.8,13.25,20.52,123.6
"2010-08-24 00:53:00",98327,1.521,159.9,2.168,0.086,19.25,107.9555,19.65,20.63,41.8,0,110.8,13.25,20.47,121.9
"2010-08-24 00:53:30",98328,1.503,162.7,1.329,0.048,19.2,107.9493,19.63,20.6,43.42,0,110.8,13.25,20.45,124.7
"2010-08-24 00:54:00",98329,1.427,160.7,3.056,0.084,19.29,107.9464,19.62,20.57,41.83,0,110.8,13.25,20.44,122.7
"2010-08-24 00:54:30",98330,1.576,156.7,1.548,0.045,19.48,107.9493,19.63,20.55,38.35,0,110.8,13.25,20.45,118.7
"2010-08-24 00:55:00",98331,1.633,164.3,1.852,0.035,19.24,107.9499,19.63,20.56,41.76,0,110.8,13.25,20.45,126.3
"2010-08-24 00:55:30",98332,1.584,162.8,2.487,0.039,19.29,107.952,19.64,20.55,41.75,0,110.8,13.25,20.46,124.8
"2010-08-24 00:56:00",98333,1.616,158.5,1.08,0.017,19.5,107.9524,19.64,20.54,38.52,0,110.8,13.25,20.46,120.5
"2010-08-24 00:56:30",98334,1.582,159.4,0.766,0.031,19.57,107.9598,19.66,20.56,37.56,0,110.8,13.25,20.48,121.4
"2010-08-24 00:57:00",98335,1.526,160.4,0.714,0.028,19.51,107.9858,19.72,20.56,36.99,0,110.8,13.25,20.54,122.4
"2010-08-24 00:57:30",98336,1.5,162.4,0.782,0.033,19.5,107.9892,19.73,20.59,37,0,110.8,13.25,20.55,124.4
"2010-08-24 00:58:00",98337,1.403,163.4,0.427,0.035,19.29,108.0009,19.76,20.59,36.55,0,110.8,13.25,20.58,125.4
"2010-08-24 00:58:30",98338,1.373,165.4,1.018,0.034,19.25,108.0225,19.82,20.63,35.76,0,110.8,13.25,20.64,127.4
"2010-08-24 00:59:00",98339,1.316,167.6,1.21,0.014,19.16,108.0314,19.84,20.65,35.41,0,110.8,13.25,20.66,129.6
"2010-08-24 00:59:30",98340,1.317,170.3,1.118,0.022,19.16,108.0588,19.91,20.68,35.25,0,110.8,13.25,20.73,132.3
"2010-08-24 01:00:00",98341,1.267,174.3,1.186,0.03,19.22,108.061,19.92,20.71,35.08,0,110.8,13.25,20.74,136.3
"2010-08-24 01:00:30",98342,1.223,174.6,0.587,0.038,19.28,108.073,19.95,20.74,34.88,0,110.8,13.25,20.77,136.6
"2010-08-24 01:01:00",98343,1.243,174,0.811,0.033,19.29,108.0941,20,20.75,34.7,0,110.8,13.25,20.82,136.0
"2010-08-24 01:01:30",98344,1.203,171.3,1.092,0.03,19.38,108.1002,20.02,20.78,34.57,0,110.8,13.25,20.84,133.3
"2010-08-24 01:02:00",98345,1.184,173.5,1.285,0.017,19.39,108.0987,20.01,20.81,34.69,0,110.8,13.25,20.83,135.5
"2010-08-24 01:02:30",98346,1.286,174,1.266,0.1,19.23,108.0984,20.01,20.82,35.35,0,110.8,13.25,20.83,136.0
"2010-08-24 01:03:00",98347,1.458,172.2,0.811,0.056,19.26,108.0984,20.01,20.83,36.11,0,110.8,13.25,20.83,134.2
"2010-08-24 01:03:30",98348,1.602,170.5,1.356,0.083,19.35,108.0823,19.97,20.82,36.01,0,110.8,13.24,20.79,132.5
"2010-08-24 01:04:00",98349,1.706,168.9,0.799,0.032,19.27,108.0667,19.93,20.81,36.1,0,110.8,13.24,20.75,130.9
"2010-08-24 01:04:30",98350,1.73,167,1.16,0.042,19.22,108.0652,19.93,20.8,36.55,0,110.8,13.24,20.75,129.0
"2010-08-24 01:05:00",98351,1.692,168.3,2.039,0.059,19.15,108.0402,19.86,20.77,37.46,0,110.8,13.24,20.68,130.3
"2010-08-24 01:05:30",98352,1.614,171.8,2.139,0.04,19.15,108.0312,19.84,20.74,38.22,0,110.8,13.24,20.66,133.8
"2010-08-24 01:06:00",98353,1.524,174.9,1.391,0.049,19.12,108.0057,19.77,20.72,39.14,0,110.8,13.24,20.60,136.9
"2010-08-24 01:06:30",98354,1.487,176.8,1.274,0.056,19.17,107.9966,19.75,20.69,39.89,0,110.8,13.24,20.57,138.8
"2010-08-24 01:07:00",98355,1.5,173.6,1.521,0.072,19.16,107.97,19.68,20.66,39.73,0,110.8,13.25,20.50,135.6
"2010-08-24 01:07:30",98356,1.364,175.2,1.451,0.051,19.23,107.9627,19.66,20.63,40.13,0,110.8,13.25,20.48,137.2
"2010-08-24 01:08:00",98357,1.211,177.7,1.466,0.043,19.21,107.9633,19.67,20.61,40.82,0,110.8,13.25,20.49,139.7
"2010-08-24 01:08:30",98358,1.085,179.6,2.555,0.057,19.16,107.9478,19.63,20.58,41.49,0,110.8,13.25,20.45,141.6
"2010-08-24 01:09:00",98359,1.144,174.7,6.171,0.078,19.12,107.9335,19.59,20.55,41.93,0,110.8,13.25,20.41,136.7
"2010-08-24 01:09:30",98360,1.11,172,1.737,0.057,19.07,107.9313,19.58,20.53,41.76,0,110.8,13.25,20.40,134.0
"2010-08-24 01:10:00",98361,1.075,176.9,6.184,0.073,19.15,107.9335,19.59,20.49,42.07,0,110.8,13.25,20.41,138.9
"2010-08-24 01:10:30",98362,1.03,184.9,3.143,0.053,19.14,107.9261,19.57,20.5,43.25,0,110.8,13.25,20.39,146.9
"2010-08-24 01:11:00",98363,1.021,184.3,2.761,0.077,19.12,107.9147,19.54,20.48,43.9,0,110.8,13.25,20.36,146.3
"2010-08-24 01:11:30",98364,0.954,181.2,1.532,0.067,19.17,107.9015,19.51,20.46,44.54,0,110.8,13.25,20.33,143.2
"2010-08-24 01:12:00",98365,0.986,187.5,5.857,0.049,19.14,107.9015,19.51,20.44,44.72,0,110.8,13.25,20.33,149.5
"2010-08-24 01:12:30",98366,0.945,181.6,6.321,0.069,19.16,107.9002,19.5,20.41,44.83,0,110.8,13.25,20.32,143.6
"2010-08-24 01:13:00",98367,0.82,173.1,2.587,0.059,19.22,107.8929,19.48,20.39,45.08,0,110.8,13.25,20.30,135.1
"2010-08-24 01:13:30",98368,0.715,171.8,3.242,0.07,19.3,107.874,19.44,20.39,45.2,0,110.8,13.25,20.26,133.8
"2010-08-24 01:14:00",98369,0.675,169.3,5.086,0.082,19.32,107.8671,19.42,20.37,44.93,0,110.8,13.25,20.24,131.3
"2010-08-24 01:14:30",98370,0.663,155.2,6.199,0.047,19.37,107.8678,19.42,20.35,44.84,0,110.8,13.25,20.24,117.2
"2010-08-24 01:15:00",98371,0.77,153.3,3.155,0.055,19.31,107.8674,19.42,20.34,44.83,0,110.8,13.25,20.24,115.3
"2010-08-24 01:15:30",98372,0.863,144.9,3.711,0.042,19.28,107.869,19.42,20.34,44.54,0,110.8,13.25,20.24,106.9
"2010-08-24 01:16:00",98373,0.903,138.8,4.435,0.024,19.28,107.8687,19.42,20.32,44.41,0,110.8,13.25,20.24,100.8
"2010-08-24 01:16:30",98374,0.885,125,4.986,0.033,19.21,107.8687,19.42,20.33,44.48,0,110.8,13.25,20.24,87.0
"2010-08-24 01:17:00",98375,0.94,111.7,2.608,0.047,19.28,107.869,19.42,20.32,45,0,110.8,13.25,20.24,73.7
"2010-08-24 01:17:30",98376,0.895,105.9,2.613,0.047,19.42,107.869,19.42,20.31,45.13,0,110.8,13.25,20.24,67.9
"2010-08-24 01:18:00",98377,0.9,93.5,3.742,0.051,19.24,107.869,19.42,20.3,45.25,0,110.8,13.25,20.24,55.5
"2010-08-24 01:18:30",98378,0.938,82.5,3.984,0.051,19.28,107.869,19.42,20.31,45.27,0,110.8,13.25,20.24,44.5
"2010-08-24 01:19:00",98379,0.78,79.43,2.895,0.049,19.22,107.869,19.42,20.29,45.44,0,110.8,13.25,20.24,41.4
"2010-08-24 01:19:30",98380,1.052,75.46,3.558,0.117,19.39,107.8628,19.41,20.29,45.13,0,110.8,13.25,20.23,37.5
"2010-08-24 01:20:00",98381,1.203,79.65,3.645,0.043,19.3,107.8473,19.37,20.28,44.44,0,110.8,13.25,20.19,41.7
"2010-08-24 01:20:30",98382,1.043,87.9,2.83,0.055,19.13,107.8394,19.35,20.26,44.46,0,110.8,13.25,20.17,49.9
"2010-08-24 01:21:00",98383,0.872,75.17,6.226,0.086,19.27,107.8366,19.34,20.26,44.9,0,110.8,13.25,20.16,37.2
"2010-08-24 01:21:30",98384,1.034,65.79,4.876,0.107,19.2,107.8352,19.34,20.26,44.83,0,110.8,13.25,20.16,27.8
"2010-08-24 01:22:00",98385,0.969,77.96,6.241,0.078,19.29,107.8352,19.34,20.25,44.77,0,110.8,13.25,20.16,40.0
"2010-08-24 01:22:30",98386,0.887,91.3,7.773,0.118,19.22,107.8352,19.34,20.24,44.5,0,110.8,13.25,20.16,53.3
"2010-08-24 01:23:00",98387,0.834,111.5,4.328,0.035,19.29,107.8352,19.34,20.24,43.74,0,110.8,13.25,20.16,73.5
"2010-08-24 01:23:30",98388,0.769,120.3,1.718,0.055,19.11,107.8363,19.34,20.24,44.24,0,110.8,13.25,20.16,82.3
"2010-08-24 01:24:00",98389,0.693,126.8,2.321,0.038,19.12,107.8425,19.36,20.23,44.36,0,110.8,13.25,20.18,88.8
"2010-08-24 01:24:30",98390,0.699,133,2.108,0.038,19.21,107.8512,19.38,20.25,44.25,0,110.8,13.25,20.20,95.0
"2010-08-24 01:25:00",98391,0.61,138.1,3.699,0.054,19.23,107.8568,19.39,20.25,44.1,0,110.8,13.25,20.21,100.1
"2010-08-24 01:25:30",98392,0.722,144.3,2.794,0.03,19.54,107.863,19.41,20.26,43.73,0,110.8,13.25,20.23,106.3
"2010-08-24 01:26:00",98393,0.746,147.6,3.156,0.084,19.44,107.8633,19.41,20.25,43.59,0,110.8,13.26,20.23,109.6
"2010-08-24 01:26:30",98394,0.823,152.8,3.083,0.051,19.31,107.8653,19.41,20.26,43.48,0,110.8,13.26,20.23,114.8
"2010-08-24 01:27:00",98395,0.866,157.1,5.12,0.097,19.21,107.8681,19.42,20.28,43.69,0,110.8,13.26,20.24,119.1
"2010-08-24 01:27:30",98396,0.741,159.5,5.356,0.064,19.39,107.8678,19.42,20.26,43.66,0,110.8,13.26,20.24,121.5
"2010-08-24 01:28:00",98397,0.781,165.9,3.136,0.048,19.31,107.8687,19.42,20.27,43.26,0,110.8,13.26,20.24,127.9
"2010-08-24 01:28:30",98398,0.764,178.1,4.724,0.047,19.4,107.869,19.42,20.27,43.56,0,110.8,13.26,20.24,140.1
"2010-08-24 01:29:00",98399,0.806,171,3.911,0.042,19.3,107.869,19.42,20.28,43.72,0,110.8,13.26,20.24,133.0
"2010-08-24 01:29:30",98400,0.93,159.5,5.038,0.055,19.04,107.8684,19.42,20.27,43.65,0,110.8,13.25,20.24,121.5
"2010-08-24 01:30:00",98401,0.805,154.3,5.008,0.053,19.22,107.8585,19.4,20.28,44.1,0,110.8,13.26,20.22,116.3
"2010-08-24 01:30:30",98402,0.96,162.3,1.484,0.058,19.01,107.8408,19.35,20.26,43.53,0,110.8,13.26,20.17,124.3
"2010-08-24 01:31:00",98403,0.852,164.5,1.874,0.076,19.14,107.8422,19.35,20.26,43.51,0,110.8,13.26,20.17,126.5
"2010-08-24 01:31:30",98404,0.955,160.5,3.341,0.053,19.06,107.845,19.36,20.26,43.75,0,110.8,13.26,20.18,122.5
"2010-08-24 01:32:00",98405,1.022,152.2,3.551,0.102,19.1,107.8467,19.37,20.25,43.7,0,110.8,13.26,20.19,114.2
"2010-08-24 01:32:30",98406,1.016,151.2,3.387,0.036,19.08,107.8419,19.35,20.26,43.69,0,110.8,13.26,20.17,113.2
"2010-08-24 01:33:00",98407,1.002,147.9,2.892,0.094,19.13,107.84,19.35,20.26,43.74,0,110.8,13.26,20.17,109.9
"2010-08-24 01:33:30",98408,1.142,142.8,4.229,0.046,19.08,107.8425,19.36,20.26,43.54,0,110.8,13.26,20.18,104.8
"2010-08-24 01:34:00",98409,1.145,145.2,2.979,0.068,19.06,107.8473,19.37,20.26,43.48,0,110.8,13.26,20.19,107.2
"2010-08-24 01:34:30",98410,1.059,147.7,3.492,0.045,19.04,107.8422,19.35,20.25,43.85,0,110.8,13.26,20.17,109.7
"2010-08-24 01:35:00",98411,1.148,150.8,4.399,0.045,19.15,107.8363,19.34,20.27,43.87,0,110.8,13.26,20.16,112.8
"2010-08-24 01:35:30",98412,1.222,147.1,2.465,0.067,19.18,107.836,19.34,20.26,43.28,0,110.8,13.26,20.16,109.1
"2010-08-24 01:36:00",98413,1.32,143.2,2.767,0.064,19.28,107.838,19.34,20.25,42.47,0,110.8,13.25,20.16,105.2
"2010-08-24 01:36:30",98414,1.43,143.1,0.718,0.11,19.38,107.8501,19.38,20.27,41.81,0,110.8,13.25,20.19,105.1
"2010-08-24 01:37:00",98415,1.557,144.1,0.829,0.05,19.39,107.8665,19.42,20.27,40.8,0,110.8,13.25,20.24,106.1
"2010-08-24 01:37:30",98416,1.434,145.2,2.482,0.057,19.37,107.8693,19.42,20.29,40.39,0,110.8,13.25,20.24,107.2
"2010-08-24 01:38:00",98417,1.591,141.7,1.453,0.116,19.37,107.8693,19.42,20.31,40,0,110.8,13.25,20.24,103.7
"2010-08-24 01:38:30",98418,1.622,145.7,1.676,0.054,19.25,107.8696,19.43,20.31,40.43,0,110.8,13.25,20.24,107.7
"2010-08-24 01:39:00",98419,1.578,147.6,1.286,0.033,19.2,107.8705,19.43,20.33,40.99,0,110.8,13.25,20.25,109.6
"2010-08-24 01:39:30",98420,1.475,145.9,1.602,0.067,19.31,107.8711,19.43,20.33,40.87,0,110.8,13.25,20.25,107.9
"2010-08-24 01:40:00",98421,1.59,150.6,1.667,0.075,19.13,107.8729,19.43,20.32,40.78,0,110.8,13.25,20.25,112.6
"2010-08-24 01:40:30",98422,1.744,142.8,4.264,0.107,19.23,107.8711,19.43,20.33,40.33,0,110.8,13.25,20.25,104.8
"2010-08-24 01:41:00",98423,1.771,150.2,3.187,0.085,19.13,107.8726,19.43,20.34,40.36,0,110.8,13.26,20.25,112.2
"2010-08-24 01:41:30",98424,1.935,145,3.198,0.045,19.34,107.874,19.44,20.34,39.31,0,110.8,13.26,20.26,107.0
"2010-08-24 01:42:00",98425,2.087,137.8,1.588,0.058,19.43,107.9001,19.5,20.35,38.09,0,110.8,13.26,20.32,99.8
"2010-08-24 01:42:30",98426,2.181,137.5,1.212,0.056,19.44,107.914,19.54,20.37,38.45,0,110.7,13.26,20.36,99.5
"2010-08-24 01:43:00",98427,2.207,140,1.185,0.055,19.29,107.9175,19.55,20.39,38.66,0,110.7,13.26,20.37,102.0
"2010-08-24 01:43:30",98428,2.124,139.5,0.547,0.03,19.32,107.939,19.6,20.42,38.85,0,110.8,13.26,20.42,101.5
"2010-08-24 01:44:00",98429,2.219,142,1.114,0.061,19.26,107.9448,19.62,20.43,39.24,0,110.7,13.26,20.44,104.0
"2010-08-24 01:44:30",98430,2.199,144.2,0.676,0.037,19.22,107.9503,19.63,20.43,38.91,0,110.7,13.26,20.45,106.2
"2010-08-24 01:45:00",98431,2.05,149.4,3.281,0.092,19.31,107.9558,19.65,20.44,38.68,0,110.7,13.26,20.47,111.4
"2010-08-24 01:45:30",98432,1.824,149.8,3.294,0.101,19.22,107.953,19.64,20.46,38.56,0,110.7,13.26,20.46,111.8
"2010-08-24 01:46:00",98433,2.081,147.9,1.955,0.057,19.35,107.9505,19.63,20.46,39.51,0,110.7,13.26,20.45,109.9
"2010-08-24 01:46:30",98434,2.149,147.5,0.868,0.023,19.35,107.9553,19.64,20.47,39.91,0,110.7,13.26,20.47,109.5
"2010-08-24 01:47:00",98435,2.125,145.4,0.924,0.032,19.17,107.959,19.65,20.46,39.43,0,110.7,13.26,20.48,107.4
"2010-08-24 01:47:30",98436,2.048,145.7,0.915,0.037,19.13,107.9635,19.67,20.49,38.76,0,110.7,13.26,20.49,107.7
"2010-08-24 01:48:00",98437,1.958,147.1,1.321,0.059,19.31,107.9639,19.67,20.5,38.69,0,110.7,13.26,20.49,109.1
"2010-08-24 01:48:30",98438,1.833,145.1,0.483,0.035,19.59,107.9657,19.67,20.49,38.08,0,110.7,13.26,20.49,107.1